Location: Les Thiberg�res
(47.8554°N, 1.0978°W)
Time: 01:00:52
(UTC+00:00)

MOS 1-B - Pass Details

Date: 17 February 2020
Orbit: 906 x 913 km, 99.4° (Epoch: 03 April)

Event Time Altitude Azimuth Distance (km) Brightness Sun altitude
Rises 05:59:22 0° 13° (NNE) 3,558 7.6 -12.2°
Reaches altitude 10° 06:01:49 10° 10° (N) 2,613 6.8 -11.8°
Maximum altitude 06:07:34 64° 291° (WNW) 1,010 4.4 -10.8°
Drops below altitude 10° 06:13:17 10° 211° (SSW) 2,597 6.5 -9.8°
Sets 06:15:42 0° 208° (SSW) 3,535 7.2 -9.4°
